Location: 81360 Arifat, France
(43.7204°N, 2.3408°E)
Time: 03:35:59
(UTC+01:00)

ACS3 Solar Sail - Pass Details

Date: 17 October 2025
Orbit: 909 x 993 km, 97.3° (Epoch: 13 November)

Event Time Altitude Azimuth Distance (km) Brightness Sun altitude
Rises 05:44:34 0° 11° (N) 3,550 5.0 -26.4°
Reaches altitude 10° 05:46:59 10° 11° (N) 2,606 4.3 -26.0°
Maximum altitude 05:52:49 84° 284° (WNW) 928 1.5 -25.0°
Enters shadow 05:55:36 33° 199° (SSW) 1,499 2.5 -24.5°
